{"data":{"norad_id":69750,"intl_designator":"2026-150M","name":"STARLINK-38037","alt_names":[],"object_type":"PAYLOAD","status":"ACTIVE","operator":null,"country":"US","launch_date":"2026-07-02","launch_site_code":"AFWTR","launch_vehicle":null,"mission":null,"orbit_class":"UNKNOWN","rcs_meters":null,"size_class":null,"mass_kg":null,"dimensions":null,"purposes":["comms"],"wikipedia_slug":null,"has_3d_model":false,"image_url":null,"decayed_at":null,"tle_current":{"epoch":"2026-09-19T23:50:24.103392Z","epoch_age_seconds":64163,"freshness":"FRESH","line1":"1 69750U 26150M   26262.99333453  .00013359  00000+0  41531-3 0  9995","line2":"2 69750  97.2830 101.8569 0001023  86.1231 274.0128 15.33451479 13656","mean_motion":15.33451479,"eccentricity":0.0001023,"inclination_deg":97.283,"raan_deg":101.8569,"arg_perigee_deg":86.1231,"mean_anomaly_deg":274.0128,"bstar":0.00041531,"rev_number":1365,"period_min":93.905807892863,"perigee_km":464.82379109054,"apogee_km":466.22400411019,"semimajor_km":6843.6608976004,"source":"CELESTRAK","updated_at":"2026-09-20T09:00:44.288173Z"}}}